AMX1411 MMTM-MMMX

Flight info

Callsign AMX1411
Flight time 0h 41m
Altitude 36000
Route TAM1C/32 TAM UT102 PAZ UT154 ENAGA ENAGA3A
Aircraft B738/M-SDE2E3FGHIRWXY/LB1

Departure

Time 2026-04-20 04:46
Airport General Francisco Javier Mina International Airport (MMTM)

Arrival

Time 2026-04-20 05:27
Airport Mexico City Benito Juárez International Airport (MMMX)
Time Latitude Longitude Altitude Speed Heading
2026-04-20 04:37 22.28970 -97.86882 99 ft 0 kts 223°
2026-04-20 04:37 22.28974 -97.86877 99 ft 2 kts 223°
2026-04-20 04:37 22.28989 -97.86862 98 ft 3 kts 223°
2026-04-20 04:38 22.29010 -97.86841 97 ft 4 kts 223°
2026-04-20 04:38 22.29025 -97.86826 96 ft 1 kts 223°
2026-04-20 04:41 22.29002 -97.86848 97 ft 13 kts 214°
2026-04-20 04:41 22.28984 -97.86849 98 ft 0 kts 139°
2026-04-20 04:41 22.28984 -97.86848 98 ft 0 kts 139°
2026-04-20 04:42 22.28982 -97.86846 98 ft 0 kts 136°
2026-04-20 04:42 22.28981 -97.86846 98 ft 0 kts 135°
2026-04-20 04:42 22.28981 -97.86845 98 ft 0 kts 135°
2026-04-20 04:42 22.28989 -97.86856 98 ft 4 kts 107°
2026-04-20 04:43 22.28987 -97.86871 98 ft 0 kts 49°
2026-04-20 04:43 22.29007 -97.86835 97 ft 19 kts 63°
2026-04-20 04:43 22.29081 -97.86714 91 ft 19 kts 56°
2026-04-20 04:43 22.29114 -97.86611 89 ft 11 kts 125°
2026-04-20 04:44 22.29052 -97.86556 88 ft 14 kts 141°
2026-04-20 04:44 22.28823 -97.86371 82 ft 55 kts 143°
2026-04-20 04:44 22.28543 -97.86141 83 ft 25 kts 146°
2026-04-20 04:44 22.28422 -97.86055 83 ft 16 kts 131°
2026-04-20 04:45 22.28394 -97.86025 83 ft 0 kts 218°
2026-04-20 04:45 22.28396 -97.86041 83 ft 0 kts 352°
2026-04-20 04:45 22.28400 -97.86042 83 ft 4 kts 338°
2026-04-20 04:45 22.28440 -97.86071 83 ft 6 kts 327°
2026-04-20 04:46 22.28629 -97.86206 82 ft 82 kts 327°
2026-04-20 04:46 22.29365 -97.86791 89 ft 176 kts 327°
2026-04-20 04:46 22.30420 -97.87657 1136 ft 193 kts 321°
2026-04-20 04:46 22.31043 -97.88393 3325 ft 133 kts 311°
2026-04-20 04:47 22.31859 -97.89254 3390 ft 213 kts 328°
2026-04-20 04:47 22.33346 -97.90034 4273 ft 246 kts 336°
2026-04-20 04:47 22.34555 -97.90623 6770 ft 188 kts 337°
2026-04-20 04:47 22.35391 -97.91054 6923 ft 232 kts 336°
2026-04-20 04:48 22.37107 -97.91999 5608 ft 342 kts 334°
2026-04-20 04:48 22.39262 -97.93061 7187 ft 339 kts 339°
2026-04-20 04:48 22.41276 -97.93873 9067 ft 321 kts 342°
2026-04-20 04:48 22.43572 -97.94432 9294 ft 342 kts
2026-04-20 04:49 22.45754 -97.93874 10451 ft 307 kts 19°
2026-04-20 04:49 22.47613 -97.93345 11792 ft 257 kts
2026-04-20 04:49 22.49198 -97.92905 12644 ft 243 kts 16°
2026-04-20 04:49 22.51065 -97.92484 12153 ft 296 kts 19°
2026-04-20 04:50 22.52632 -97.91699 14294 ft 220 kts 14°
2026-04-20 04:50 22.52779 -97.91650 14526 ft 212 kts
2026-04-20 04:50 22.53792 -97.91532 14582 ft 233 kts
2026-04-20 04:50 22.55689 -97.90942 12469 ft 353 kts 23°
2026-04-20 04:51 22.57921 -97.89598 12587 ft 373 kts 56°
2026-04-20 04:51 22.57947 -97.87290 14866 ft 311 kts 122°
2026-04-20 04:51 22.56542 -97.86011 16876 ft 261 kts 155°
2026-04-20 04:51 22.54851 -97.85170 17120 ft 288 kts 156°
2026-04-20 04:52 22.52927 -97.84063 16434 ft 330 kts 149°
2026-04-20 04:52 22.50971 -97.82695 16120 ft 337 kts 147°
2026-04-20 04:52 22.49043 -97.81308 15906 ft 329 kts 148°
2026-04-20 04:52 22.47124 -97.80036 15701 ft 319 kts 149°
2026-04-20 04:53 22.45204 -97.78887 15507 ft 312 kts 157°
2026-04-20 04:53 22.43093 -97.78371 15420 ft 314 kts 181°
2026-04-20 04:53 22.40932 -97.78785 15707 ft 322 kts 200°
2026-04-20 04:53 22.38914 -97.79836 16310 ft 325 kts 210°
2026-04-20 04:54 22.36957 -97.81076 16943 ft 328 kts 211°
2026-04-20 04:54 22.34997 -97.82348 17580 ft 330 kts 211°
2026-04-20 04:54 22.33011 -97.83644 18049 ft 337 kts 212°
2026-04-20 04:54 22.30956 -97.84940 18505 ft 345 kts 208°
2026-04-20 04:55 22.28685 -97.85879 18944 ft 354 kts 192°
2026-04-20 04:55 22.26193 -97.85914 19407 ft 364 kts 174°
2026-04-20 04:55 22.23683 -97.85385 19853 ft 371 kts 169°
2026-04-20 04:55 22.21153 -97.84698 20298 ft 378 kts 168°
2026-04-20 04:56 22.18615 -97.83980 20741 ft 383 kts 168°
2026-04-20 04:56 22.13466 -97.82564 21620 ft 388 kts 169°
2026-04-20 04:56 22.08048 -97.81159 22503 ft 392 kts 170°
2026-04-20 04:56 22.02446 -97.79786 23015 ft 402 kts 171°
2026-04-20 04:57 21.96738 -97.78427 23509 ft 411 kts 171°
2026-04-20 04:57 21.90914 -97.77045 23987 ft 420 kts 171°
2026-04-20 04:57 21.85002 -97.75630 24480 ft 428 kts 171°
2026-04-20 04:57 21.78989 -97.74177 24977 ft 436 kts 171°
2026-04-20 04:58 21.72792 -97.72672 25481 ft 443 kts 171°
2026-04-20 04:58 21.66566 -97.71159 25982 ft 449 kts 171°
2026-04-20 04:58 21.60256 -97.69625 26480 ft 452 kts 171°
2026-04-20 04:58 21.54001 -97.68103 26974 ft 452 kts 171°
2026-04-20 04:59 21.44714 -97.65846 27717 ft 451 kts 172°
2026-04-20 04:59 21.34807 -97.63445 28514 ft 450 kts 172°
2026-04-20 04:59 21.24871 -97.61056 29334 ft 454 kts 172°
2026-04-20 04:59 21.14802 -97.58650 30166 ft 459 kts 172°
2026-04-20 05:00 21.04646 -97.56224 30999 ft 464 kts 172°
2026-04-20 05:00 20.94399 -97.53767 31835 ft 468 kts 172°
2026-04-20 05:00 20.84021 -97.51274 32676 ft 471 kts 172°
2026-04-20 05:00 20.73698 -97.48797 33560 ft 474 kts 172°
2026-04-20 05:01 20.63141 -97.46468 34487 ft 474 kts 175°
2026-04-20 05:01 20.52642 -97.45155 35415 ft 468 kts 181°
2026-04-20 05:01 20.42158 -97.45023 36302 ft 459 kts 187°
2026-04-20 05:01 20.35324 -97.46204 36175 ft 446 kts 206°
2026-04-20 05:02 20.32701 -97.47927 36211 ft 432 kts 225°
2026-04-20 05:02 20.30905 -97.50481 36211 ft 426 kts 245°
2026-04-20 05:02 20.29979 -97.53526 36222 ft 427 kts 258°
2026-04-20 05:03 20.29154 -97.59907 36213 ft 429 kts 263°
2026-04-20 05:03 20.28587 -97.66307 36225 ft 428 kts 264°
2026-04-20 05:04 20.28054 -97.72649 36241 ft 428 kts 264°
2026-04-20 05:04 20.27279 -97.79029 36268 ft 427 kts 257°
2026-04-20 05:05 20.25526 -97.85126 35833 ft 433 kts 249°
2026-04-20 05:05 20.24296 -97.88068 35297 ft 431 kts 244°
2026-04-20 05:05 20.22828 -97.90910 34759 ft 428 kts 240°
2026-04-20 05:05 20.21195 -97.93605 34228 ft 428 kts 237°
2026-04-20 05:06 20.19445 -97.96190 33699 ft 430 kts 235°
2026-04-20 05:06 20.17563 -97.98780 33165 ft 433 kts 233°
2026-04-20 05:06 20.15659 -98.01287 32667 ft 437 kts 233°
2026-04-20 05:06 20.13685 -98.03820 32200 ft 440 kts 232°
2026-04-20 05:07 20.11682 -98.06354 31734 ft 442 kts 232°
2026-04-20 05:07 20.09671 -98.08877 31265 ft 443 kts 232°
2026-04-20 05:07 20.07667 -98.11380 30802 ft 445 kts 232°
2026-04-20 05:07 20.05615 -98.13938 30496 ft 444 kts 231°
2026-04-20 05:08 20.03693 -98.16535 30478 ft 444 kts 237°
2026-04-20 05:08 20.01096 -98.22555 30383 ft 450 kts 254°
2026-04-20 05:08 20.00314 -98.25799 30113 ft 451 kts 257°
2026-04-20 05:09 19.99648 -98.29081 29857 ft 449 kts 258°
2026-04-20 05:09 19.99029 -98.32380 29599 ft 447 kts 259°
2026-04-20 05:09 19.98426 -98.35643 29344 ft 447 kts 259°
2026-04-20 05:09 19.97814 -98.38913 29087 ft 449 kts 258°
2026-04-20 05:10 19.97187 -98.42203 28830 ft 452 kts 258°
2026-04-20 05:10 19.96106 -98.47762 28515 ft 452 kts 258°
2026-04-20 05:10 19.94473 -98.56027 28071 ft 453 kts 258°
2026-04-20 05:10 19.92985 -98.63423 27679 ft 455 kts 258°
2026-04-20 05:11 19.92342 -98.66569 27540 ft 457 kts 257°
2026-04-20 05:11 19.91694 -98.69719 27501 ft 458 kts 257°
2026-04-20 05:11 19.91048 -98.72867 27497 ft 461 kts 258°
2026-04-20 05:11 19.90475 -98.76058 27497 ft 461 kts 260°
2026-04-20 05:12 19.90044 -98.79237 27493 ft 459 kts 262°
2026-04-20 05:12 19.89686 -98.82455 27487 ft 459 kts 263°
2026-04-20 05:12 19.89360 -98.85654 27482 ft 459 kts 263°
2026-04-20 05:12 19.89097 -98.88910 27455 ft 462 kts 266°
2026-04-20 05:13 19.89065 -98.92149 27164 ft 465 kts 270°
2026-04-20 05:13 19.89202 -98.95397 26807 ft 459 kts 272°
2026-04-20 05:13 19.89423 -98.98592 26434 ft 446 kts 274°
2026-04-20 05:13 19.89667 -99.01696 25788 ft 442 kts 274°
2026-04-20 05:14 19.89911 -99.04760 24804 ft 440 kts 274°
2026-04-20 05:14 19.90150 -99.07835 23898 ft 432 kts 273°
2026-04-20 05:14 19.90372 -99.10778 23146 ft 422 kts 273°
2026-04-20 05:14 19.90587 -99.13707 22390 ft 412 kts 273°
2026-04-20 05:15 19.90790 -99.16563 21649 ft 404 kts 273°
2026-04-20 05:15 19.90987 -99.19382 20904 ft 397 kts 273°
2026-04-20 05:15 19.91173 -99.22118 20173 ft 390 kts 274°
2026-04-20 05:15 19.91354 -99.24821 19440 ft 384 kts 273°
2026-04-20 05:16 19.91449 -99.27490 18853 ft 374 kts 269°
2026-04-20 05:16 19.91305 -99.30045 18582 ft 355 kts 262°
2026-04-20 05:16 19.90893 -99.32438 18521 ft 332 kts 256°
2026-04-20 05:16 19.90117 -99.34547 18507 ft 317 kts 237°
2026-04-20 05:17 19.88682 -99.36159 18525 ft 323 kts 216°
2026-04-20 05:17 19.86783 -99.37286 18524 ft 331 kts 204°
2026-04-20 05:17 19.84654 -99.37968 18420 ft 333 kts 188°
2026-04-20 05:17 19.82456 -99.37866 18020 ft 338 kts 167°
2026-04-20 05:18 19.80303 -99.37157 17258 ft 344 kts 160°
2026-04-20 05:18 19.78128 -99.36272 16334 ft 352 kts 159°
2026-04-20 05:18 19.75977 -99.35373 15668 ft 349 kts 159°
2026-04-20 05:18 19.73858 -99.34505 15222 ft 339 kts 160°
2026-04-20 05:19 19.71760 -99.33672 14768 ft 330 kts 160°
2026-04-20 05:19 19.69725 -99.32882 14332 ft 322 kts 160°
2026-04-20 05:19 19.67736 -99.32118 13894 ft 316 kts 160°
2026-04-20 05:19 19.65783 -99.31370 13443 ft 310 kts 160°
2026-04-20 05:20 19.63878 -99.30642 13029 ft 303 kts 160°
2026-04-20 05:20 19.62019 -99.29930 12889 ft 288 kts 160°
2026-04-20 05:20 19.60237 -99.29208 12885 ft 286 kts 154°
2026-04-20 05:20 19.58535 -99.28199 12898 ft 300 kts 145°
2026-04-20 05:21 19.56902 -99.26960 12885 ft 303 kts 142°
2026-04-20 05:21 19.55312 -99.25664 12871 ft 303 kts 141°
2026-04-20 05:21 19.53670 -99.24367 12865 ft 304 kts 146°
2026-04-20 05:21 19.51880 -99.23420 12846 ft 306 kts 166°
2026-04-20 05:22 19.49851 -99.23154 12861 ft 305 kts 180°
2026-04-20 05:22 19.47815 -99.23200 12765 ft 307 kts 182°
2026-04-20 05:22 19.45779 -99.23284 12321 ft 306 kts 182°
2026-04-20 05:22 19.43735 -99.23328 11586 ft 312 kts 180°
2026-04-20 05:23 19.41669 -99.23305 10986 ft 309 kts 174°
2026-04-20 05:23 19.39694 -99.23019 10853 ft 282 kts 168°
2026-04-20 05:23 19.38037 -99.22317 10607 ft 258 kts 140°
2026-04-20 05:23 19.37121 -99.20926 10373 ft 235 kts 103°
2026-04-20 05:24 19.37062 -99.19385 10135 ft 207 kts 77°
2026-04-20 05:24 19.37462 -99.18076 9787 ft 193 kts 63°
2026-04-20 05:24 19.38073 -99.16879 9178 ft 197 kts 58°
2026-04-20 05:24 19.38739 -99.15700 8564 ft 199 kts 57°
2026-04-20 05:25 19.39418 -99.14525 8089 ft 194 kts 54°
2026-04-20 05:25 19.40160 -99.13319 8148 ft 196 kts 57°
2026-04-20 05:25 19.40760 -99.12175 7960 ft 185 kts 62°
2026-04-20 05:25 19.41355 -99.10989 7693 ft 189 kts 57°
2026-04-20 05:26 19.41981 -99.09875 7520 ft 177 kts 57°
2026-04-20 05:26 19.42575 -99.08805 7403 ft 180 kts 58°
2026-04-20 05:26 19.43146 -99.07791 7351 ft 131 kts 57°
2026-04-20 05:26 19.43499 -99.07164 7338 ft 91 kts 58°
2026-04-20 05:27 19.43783 -99.06670 7338 ft 70 kts 58°
2026-04-20 05:27 19.43965 -99.06255 7331 ft 65 kts 83°
2026-04-20 05:27 19.43738 -99.05959 7335 ft 39 kts 186°
2026-04-20 05:27 19.43695 -99.05972 7334 ft 0 kts 232°